| time (UTC) | temp F | wind direction | speed MPH | gust MPH | rain 1hr in | rain 24hr in | rain mn in | humidity % | barometer mb |
| 20260906150701 | 77 | 156 | 1.0 | 6.0 | 0.00 | 0.00 | 0.00 | 100 | 1014.7 |
| 20260906150427 | 77 | 181 | 1.0 | 6.0 | 0.00 | 0.00 | 0.00 | 100 | 1014.8 |
| 20260906145959 | 77 | 173 | 2.0 | 5.0 | 0.00 | 0.00 | 0.00 | 100 | 1014.9 |
| 20260906145427 | 77 | 178 | 1.0 | 9.0 | 0.00 | 0.00 | 0.00 | 100 | 1014.9 |
| 20260906145259 | 77 | 178 | 1.0 | 9.0 | 0.00 | 0.00 | 0.00 | 100 | 1014.9 |
| 20260906144603 | 77 | 184 | 2.0 | 9.0 | 0.00 | 0.00 | 0.00 | 100 | 1014.9 |
| 20260906144427 | 77 | 120 | 2.0 | 7.0 | 0.00 | 0.00 | 0.00 | 100 | 1014.8 |
| 20260906143900 | 77 | 180 | 3.0 | 7.0 | 0.00 | 0.00 | 0.00 | 100 | 1014.7 |
| 20260906143427 | 77 | 177 | 1.0 | 7.0 | 0.00 | 0.00 | 0.00 | 100 | 1014.6 |
| 20260906143158 | 77 | 177 | 1.0 | 7.0 | 0.00 | 0.00 | 0.00 | 100 | 1014.6 |
| 20260906142500 | 76 | 188 | 1.0 | 6.0 | 0.00 | 0.00 | 0.00 | 100 | 1014.6 |
| 20260906142429 | 76 | 188 | 1.0 | 6.0 | 0.00 | 0.00 | 0.00 | 100 | 1014.6 |
| 20260906141801 | 76 | 128 | 1.0 | 6.0 | 0.00 | 0.00 | 0.00 | 100 | 1014.5 |
| 20260906141429 | 76 | 140 | 2.0 | 6.0 | 0.00 | 0.00 | 0.00 | 100 | 1014.5 |
| 20260906141100 | 76 | 140 | 2.0 | 6.0 | 0.00 | 0.00 | 0.00 | 100 | 1014.5 |
| 20260906140429 | 76 | 161 | 2.0 | 7.0 | 0.00 | 0.00 | 0.00 | 100 | 1014.4 |
| 20260906140402 | 76 | 161 | 2.0 | 7.0 | 0.00 | 0.00 | 0.00 | 100 | 1014.4 |
| 20260906135702 | 76 | 125 | 1.0 | 7.0 | 0.00 | 0.00 | 0.00 | 100 | 1014.5 |
| 20260906135428 | 76 | 97 | 3.0 | 7.0 | 0.00 | 0.00 | 0.00 | 100 | 1014.5 |
| 20260906135003 | 76 | 98 | 1.0 | 7.0 | 0.00 | 0.00 | 0.00 | 100 | 1014.5 |
| 20260906134428 | 76 | 121 | 2.0 | 7.0 | 0.00 | 0.00 | 0.00 | 100 | 1014.5 |
| 20260906134303 | 76 | 121 | 2.0 | 7.0 | 0.00 | 0.00 | 0.00 | 100 | 1014.5 |
| 20260906133601 | 76 | 110 | 2.0 | 5.0 | 0.00 | 0.00 | 0.00 | 100 | 1014.5 |
| 20260906133427 | 75 | 106 | 1.0 | 7.0 | 0.00 | 0.00 | 0.00 | 100 | 1014.3 |
| 20260906132859 | 75 | 102 | 4.0 | 8.0 | 0.00 | 0.00 | 0.00 | 100 | 1014.5 |
| 20260906132427 | 75 | 85 | 2.0 | 8.0 | 0.00 | 0.00 | 0.00 | 100 | 1014.4 |
| 20260906132201 | 75 | 85 | 2.0 | 8.0 | 0.00 | 0.00 | 0.00 | 100 | 1014.4 |
| 20260906131503 | 75 | 100 | 3.0 | 5.0 | 0.00 | 0.00 | 0.00 | 100 | 1014.5 |
| 20260906131429 | 75 | 100 | 3.0 | 5.0 | 0.00 | 0.00 | 0.00 | 100 | 1014.5 |
| 20260906130805 | 75 | 94 | 2.0 | 5.0 | 0.00 | 0.00 | 0.00 | 100 | 1014.4 |
| 20260906130429 | 75 | 91 | 3.0 | 5.0 | 0.00 | 0.00 | 0.00 | 100 | 1014.4 |
| 20260906125429 | 75 | 114 | 4.0 | 7.0 | 0.00 | 0.00 | 0.00 | 100 | 1014.5 |
| 20260906125404 | 75 | 114 | 4.0 | 7.0 | 0.00 | 0.00 | 0.00 | 100 | 1014.5 |
| 20260906124659 | 75 | 96 | 3.0 | 5.0 | 0.00 | 0.00 | 0.00 | 100 | 1014.4 |
| 20260906124428 | 74 | 127 | 2.0 | 5.0 | 0.00 | 0.00 | 0.00 | 100 | 1014.3 |
| 20260906123959 | 74 | 93 | 3.0 | 6.0 | 0.00 | 0.00 | 0.00 | 100 | 1014.2 |
| 20260906123427 | 74 | 118 | 3.0 | 6.0 | 0.00 | 0.00 | 0.00 | 100 | 1014.1 |
| 20260906123300 | 74 | 118 | 3.0 | 6.0 | 0.00 | 0.00 | 0.00 | 100 | 1014.1 |
| 20260906122600 | 74 | 84 | 1.0 | 5.0 | 0.00 | 0.00 | 0.00 | 100 | 1013.9 |
| 20260906122427 | 74 | 112 | 2.0 | 5.0 | 0.00 | 0.00 | 0.00 | 100 | 1014.0 |
| 20260906121900 | 74 | 95 | 1.0 | 6.0 | 0.00 | 0.00 | 0.00 | 100 | 1013.9 |
| 20260906121427 | 74 | 98 | 2.0 | 7.0 | 0.00 | 0.00 | 0.00 | 100 | 1013.9 |
| 20260906121200 | 74 | 98 | 2.0 | 7.0 | 0.00 | 0.00 | 0.00 | 100 | 1013.9 |
| 20260906120503 | 74 | 100 | 3.0 | 5.0 | 0.00 | 0.00 | 0.00 | 100 | 1013.7 |
| 20260906120429 | 74 | 100 | 3.0 | 5.0 | 0.00 | 0.00 | 0.00 | 100 | 1013.7 |
| 20260906115800 | 74 | 108 | 2.0 | 6.0 | 0.00 | 0.01 | 0.00 | 100 | 1013.6 |
| 20260906115429 | 74 | 91 | 3.0 | 6.0 | 0.00 | 0.01 | 0.00 | 100 | 1013.6 |
| 20260906115104 | 74 | 91 | 3.0 | 6.0 | 0.00 | 0.01 | 0.00 | 100 | 1013.6 |
| 20260906114428 | 74 | 98 | 2.0 | 6.0 | 0.00 | 0.04 | 0.00 | 100 | 1013.6 |
| 20260906114400 | 74 | 98 | 2.0 | 6.0 | 0.00 | 0.04 | 0.00 | 100 | 1013.6 |
| 20260906113659 | 74 | 157 | 1.0 | 5.0 | 0.00 | 0.06 | 0.00 | 100 | 1013.7 |
| 20260906113428 | 74 | 122 | 2.0 | 5.0 | 0.00 | 0.08 | 0.00 | 100 | 1013.6 |
| 20260906113000 | 74 | 115 | 2.0 | 5.0 | 0.00 | 0.10 | 0.00 | 100 | 1013.6 |
| 20260906112428 | 74 | 98 | 2.0 | 5.0 | 0.00 | 0.13 | 0.00 | 100 | 1013.5 |
| 20260906112301 | 74 | 98 | 2.0 | 5.0 | 0.00 | 0.13 | 0.00 | 100 | 1013.5 |
| 20260906111600 | 74 | 128 | 2.0 | 5.0 | 0.00 | 0.16 | 0.00 | 100 | 1013.5 |
| 20260906111428 | 74 | 94 | 1.0 | 5.0 | 0.00 | 0.18 | 0.00 | 100 | 1013.6 |
| 20260906110859 | 74 | 150 | 2.0 | 5.0 | 0.00 | 0.20 | 0.00 | 100 | 1013.6 |
| 20260906110428 | 74 | 101 | 2.0 | 5.0 | 0.00 | 0.23 | 0.00 | 100 | 1013.6 |
| 20260906110159 | 74 | 101 | 2.0 | 5.0 | 0.00 | 0.23 | 0.00 | 100 | 1013.6 |
| 20260906105502 | 74 | 98 | 1.0 | 6.0 | 0.00 | 0.27 | 0.00 | 100 | 1013.7 |
| 20260906105428 | 74 | 98 | 1.0 | 6.0 | 0.00 | 0.27 | 0.00 | 100 | 1013.7 |
| 20260906104759 | 74 | 108 | 1.0 | 5.0 | 0.00 | 0.28 | 0.00 | 100 | 1013.6 |
| 20260906104427 | 74 | 91 | 3.0 | 5.0 | 0.00 | 0.29 | 0.00 | 100 | 1013.6 |
| 20260906104101 | 74 | 91 | 3.0 | 5.0 | 0.00 | 0.29 | 0.00 | 100 | 1013.6 |
| 20260906103427 | 74 | 117 | 2.0 | 6.0 | 0.00 | 0.30 | 0.00 | 100 | 1013.6 |
| 20260906103358 | 74 | 117 | 2.0 | 6.0 | 0.00 | 0.30 | 0.00 | 100 | 1013.6 |
| 20260906102658 | 74 | 112 | 2.0 | 6.0 | 0.00 | 0.32 | 0.00 | 100 | 1013.6 |
| 20260906102427 | 74 | 104 | 3.0 | 6.0 | 0.00 | 0.34 | 0.00 | 100 | 1013.4 |
| 20260906102002 | 74 | 93 | 4.0 | 6.0 | 0.00 | 0.36 | 0.00 | 100 | 1013.4 |
| 20260906101428 | 74 | 108 | 4.0 | 7.0 | 0.00 | 0.36 | 0.00 | 100 | 1013.5 |
| 20260906101304 | 74 | 108 | 4.0 | 7.0 | 0.00 | 0.36 | 0.00 | 100 | 1013.5 |
| 20260906100559 | 74 | 86 | 3.0 | 8.0 | 0.00 | 0.36 | 0.00 | 100 | 1013.5 |
| 20260906100428 | 74 | 87 | 3.0 | 8.0 | 0.00 | 0.36 | 0.00 | 100 | 1013.6 |
| 20260906095859 | 73 | 107 | 3.0 | 6.0 | 0.00 | 0.36 | 0.00 | 100 | 1013.6 |
| 20260906095428 | 73 | 93 | 4.0 | 6.0 | 0.00 | 0.36 | 0.00 | 100 | 1013.6 |
| 20260906095200 | 73 | 93 | 4.0 | 6.0 | 0.00 | 0.36 | 0.00 | 100 | 1013.6 |
| 20260906094504 | 73 | 103 | 2.0 | 4.0 | 0.00 | 0.36 | 0.00 | 100 | 1013.7 |
| 20260906094427 | 73 | 103 | 2.0 | 4.0 | 0.00 | 0.36 | 0.00 | 100 | 1013.7 |
| 20260906093759 | 73 | 103 | 2.0 | 4.0 | 0.00 | 0.36 | 0.00 | 100 | 1013.7 |
| 20260906093427 | 73 | 77 | 0.0 | 4.0 | 0.00 | 0.36 | 0.00 | 100 | 1013.7 |
| 20260906093059 | 73 | 77 | 0.0 | 4.0 | 0.00 | 0.36 | 0.00 | 100 | 1013.7 |
| 20260906092427 | 73 | 102 | 2.0 | 6.0 | 0.00 | 0.36 | 0.00 | 100 | 1013.9 |
| 20260906092402 | 73 | 102 | 2.0 | 6.0 | 0.00 | 0.36 | 0.00 | 100 | 1013.9 |
| 20260906091702 | 73 | 102 | 3.0 | 6.0 | 0.00 | 0.36 | 0.00 | 100 | 1013.9 |
| 20260906091429 | 73 | 125 | 3.0 | 6.0 | 0.00 | 0.36 | 0.00 | 100 | 1013.8 |
| 20260906091001 | 73 | 129 | 2.0 | 4.0 | 0.00 | 0.36 | 0.00 | 100 | 1013.8 |
| 20260906090428 | 73 | 129 | 2.0 | 4.0 | 0.00 | 0.36 | 0.00 | 100 | 1013.9 |
| 20260906090301 | 73 | 129 | 2.0 | 4.0 | 0.00 | 0.36 | 0.00 | 100 | 1013.9 |
| 20260906085602 | 73 | 130 | 2.0 | 4.0 | 0.00 | 0.36 | 0.00 | 100 | 1013.8 |
| 20260906085428 | 73 | 130 | 2.0 | 4.0 | 0.00 | 0.36 | 0.00 | 100 | 1013.9 |
| 20260906084902 | 73 | 130 | 2.0 | 4.0 | 0.00 | 0.36 | 0.00 | 100 | 1013.8 |
| 20260906084428 | 73 | 130 | 0.0 | 3.0 | 0.00 | 0.36 | 0.00 | 100 | 1013.9 |
| 20260906084159 | 73 | 130 | 0.0 | 3.0 | 0.00 | 0.36 | 0.00 | 100 | 1013.9 |
| 20260906083501 | 73 | 131 | 1.0 | 3.0 | 0.00 | 0.36 | 0.00 | 100 | 1013.8 |
| 20260906083427 | 73 | 131 | 1.0 | 3.0 | 0.00 | 0.36 | 0.00 | 100 | 1013.8 |
| 20260906082801 | 72 | 133 | 0.0 | 2.0 | 0.00 | 0.36 | 0.00 | 100 | 1013.6 |
| 20260906082427 | 72 | 133 | 0.0 | 3.0 | 0.00 | 0.36 | 0.00 | 100 | 1013.5 |
| 20260906082058 | 72 | 133 | 0.0 | 3.0 | 0.00 | 0.36 | 0.00 | 100 | 1013.5 |
| 20260906081429 | 72 | 145 | 1.0 | 3.0 | 0.00 | 0.36 | 0.00 | 100 | 1013.3 |
| 20260906081402 | 72 | 145 | 1.0 | 3.0 | 0.00 | 0.36 | 0.00 | 100 | 1013.3 |
| 20260906080701 | 72 | 153 | 1.0 | 3.0 | 0.00 | 0.36 | 0.00 | 100 | 1013.3 |
| 20260906080429 | 72 | 93 | 0.0 | 3.0 | 0.00 | 0.36 | 0.00 | 100 | 1013.3 |
| 20260906080002 | 72 | 106 | 1.0 | 3.0 | 0.00 | 0.36 | 0.00 | 100 | 1013.2 |
| 20260906075429 | 73 | 105 | 1.0 | 4.0 | 0.00 | 0.36 | 0.00 | 100 | 1013.3 |
| 20260906075305 | 73 | 105 | 1.0 | 4.0 | 0.00 | 0.36 | 0.00 | 100 | 1013.3 |
| 20260906074602 | 73 | 105 | 1.0 | 6.0 | 0.00 | 0.36 | 0.00 | 100 | 1013.4 |
| 20260906074428 | 73 | 165 | 1.0 | 6.0 | 0.00 | 0.36 | 0.00 | 100 | 1013.4 |
| 20260906073900 | 73 | 153 | 1.0 | 4.0 | 0.00 | 0.36 | 0.00 | 100 | 1013.5 |
| 20260906073427 | 73 | 137 | 0.0 | 5.0 | 0.00 | 0.36 | 0.00 | 100 | 1013.3 |
| 20260906073201 | 73 | 137 | 0.0 | 5.0 | 0.00 | 0.36 | 0.00 | 100 | 1013.3 |
| 20260906072458 | 73 | 96 | 2.0 | 6.0 | 0.00 | 0.36 | 0.00 | 100 | 1013.4 |
| 20260906072427 | 73 | 96 | 2.0 | 6.0 | 0.00 | 0.36 | 0.00 | 100 | 1013.4 |
| 20260906071800 | 73 | 86 | 2.0 | 7.0 | 0.00 | 0.36 | 0.00 | 100 | 1013.2 |
| 20260906071427 | 72 | 98 | 2.0 | 7.0 | 0.00 | 0.36 | 0.00 | 100 | 1013.3 |
| 20260906071102 | 72 | 98 | 2.0 | 7.0 | 0.00 | 0.36 | 0.00 | 100 | 1013.3 |
| 20260906070429 | 72 | 112 | 2.0 | 5.0 | 0.00 | 0.36 | 0.00 | 100 | 1013.4 |
| 20260906070402 | 72 | 112 | 2.0 | 5.0 | 0.00 | 0.36 | 0.00 | 100 | 1013.4 |
| 20260906065701 | 72 | 103 | 1.0 | 5.0 | 0.00 | 0.36 | 0.00 | 100 | 1013.3 |
| 20260906065429 | 72 | 104 | 3.0 | 5.0 | 0.00 | 0.36 | 0.00 | 100 | 1013.4 |
| 20260906065000 | 72 | 105 | 3.0 | 5.0 | 0.00 | 0.36 | 0.00 | 100 | 1013.4 |
| 20260906064429 | 72 | 92 | 2.0 | 4.0 | 0.00 | 0.36 | 0.00 | 100 | 1013.6 |
| 20260906064300 | 72 | 92 | 2.0 | 4.0 | 0.00 | 0.36 | 0.00 | 100 | 1013.6 |
| 20260906063600 | 72 | 107 | 2.0 | 4.0 | 0.00 | 0.36 | 0.00 | 100 | 1013.6 |
| 20260906063428 | 72 | 107 | 2.0 | 4.0 | 0.00 | 0.36 | 0.00 | 100 | 1013.5 |
| 20260906062901 | 72 | 107 | 2.0 | 4.0 | 0.00 | 0.36 | 0.00 | 100 | 1013.6 |
| 20260906062428 | 72 | 107 | 1.0 | 4.0 | 0.00 | 0.36 | 0.00 | 100 | 1013.5 |
| 20260906062203 | 72 | 107 | 1.0 | 4.0 | 0.00 | 0.36 | 0.00 | 100 | 1013.5 |
| 20260906061500 | 72 | 103 | 2.0 | 5.0 | 0.00 | 0.36 | 0.00 | 100 | 1013.4 |
| 20260906061428 | 72 | 103 | 2.0 | 5.0 | 0.00 | 0.36 | 0.00 | 100 | 1013.4 |
| 20260906060800 | 72 | 104 | 2.0 | 4.0 | 0.00 | 0.36 | 0.00 | 100 | 1013.5 |
| 20260906060428 | 72 | 104 | 2.0 | 3.0 | 0.00 | 0.36 | 0.00 | 100 | 1013.6 |
| 20260906060100 | 72 | 104 | 2.0 | 3.0 | 0.00 | 0.36 | 0.00 | 100 | 1013.6 |
| 20260906055428 | 72 | 104 | 1.0 | 3.0 | 0.00 | 0.36 | 0.00 | 100 | 1013.5 |
| 20260906055400 | 72 | 104 | 1.0 | 3.0 | 0.00 | 0.36 | 0.00 | 100 | 1013.5 |
| 20260906054700 | 72 | 104 | 0.0 | 2.0 | 0.00 | 0.36 | 0.00 | 100 | 1013.6 |
| 20260906054428 | 72 | 104 | 0.0 | 1.0 | 0.00 | 0.36 | 0.00 | 100 | 1013.7 |
| 20260906054001 | 72 | 104 | 0.0 | 1.0 | 0.00 | 0.36 | 0.00 | 99 | 1013.9 |
| 20260906053427 | 72 | 104 | 0.0 | 1.0 | 0.00 | 0.36 | 0.00 | 99 | 1013.9 |
| 20260906053259 | 72 | 104 | 0.0 | 1.0 | 0.00 | 0.36 | 0.00 | 99 | 1013.9 |
| 20260906052601 | 72 | 104 | 0.0 | 2.0 | 0.00 | 0.36 | 0.00 | 99 | 1013.7 |
| 20260906052427 | 72 | 104 | 0.0 | 3.0 | 0.00 | 0.36 | 0.00 | 99 | 1014.0 |
| 20260906051900 | 72 | 104 | 1.0 | 3.0 | 0.00 | 0.36 | 0.00 | 99 | 1013.9 |
| 20260906051427 | 72 | 104 | 2.0 | 3.0 | 0.00 | 0.36 | 0.00 | 98 | 1014.0 |
| 20260906051159 | 72 | 104 | 2.0 | 3.0 | 0.00 | 0.36 | 0.00 | 98 | 1014.0 |
| 20260906050459 | 72 | 104 | 0.0 | 3.0 | 0.00 | 0.36 | 0.36 | 97 | 1014.1 |
| 20260906050427 | 72 | 104 | 0.0 | 3.0 | 0.00 | 0.36 | 0.36 | 97 | 1014.1 |
| 20260906045759 | 73 | 104 | 1.0 | 3.0 | 0.00 | 0.36 | 0.36 | 97 | 1014.0 |
| 20260906045427 | 73 | 104 | 1.0 | 3.0 | 0.00 | 0.36 | 0.36 | 96 | 1013.9 |
| 20260906045100 | 73 | 104 | 1.0 | 3.0 | 0.00 | 0.36 | 0.36 | 96 | 1013.9 |
| 20260906044429 | 73 | 104 | 0.0 | 1.0 | 0.00 | 0.36 | 0.36 | 95 | 1014.1 |
| 20260906044402 | 73 | 104 | 0.0 | 1.0 | 0.00 | 0.36 | 0.36 | 95 | 1014.1 |
| 20260906043701 | 73 | 104 | 0.0 | 2.0 | 0.00 | 0.36 | 0.36 | 95 | 1014.1 |
| 20260906043429 | 74 | 104 | 1.0 | 3.0 | 0.00 | 0.36 | 0.36 | 95 | 1013.9 |
| 20260906043002 | 74 | 104 | 1.0 | 4.0 | 0.00 | 0.36 | 0.36 | 94 | 1014.0 |
| 20260906042429 | 74 | 104 | 1.0 | 4.0 | 0.00 | 0.36 | 0.36 | 94 | 1014.0 |
| 20260906042308 | 74 | 104 | 1.0 | 4.0 | 0.00 | 0.36 | 0.36 | 94 | 1014.0 |
| 20260906041600 | 74 | 182 | 1.0 | 4.0 | 0.00 | 0.36 | 0.36 | 94 | 1014.0 |
| 20260906041428 | 74 | 158 | 1.0 | 4.0 | 0.00 | 0.36 | 0.36 | 94 | 1013.8 |
| 20260906040904 | 74 | 142 | 1.0 | 2.0 | 0.00 | 0.36 | 0.36 | 93 | 1014.0 |
| 20260906040428 | 74 | 142 | 0.0 | 2.0 | 0.00 | 0.36 | 0.36 | 93 | 1013.9 |
| 20260906040202 | 74 | 142 | 0.0 | 2.0 | 0.00 | 0.36 | 0.36 | 93 | 1013.9 |
| 20260906035500 | 75 | 168 | 1.0 | 4.0 | 0.00 | 0.36 | 0.36 | 92 | 1013.9 |
| 20260906035428 | 75 | 168 | 1.0 | 4.0 | 0.00 | 0.36 | 0.36 | 92 | 1013.9 |
| 20260906034759 | 75 | 168 | 1.0 | 6.0 | 0.00 | 0.36 | 0.36 | 92 | 1013.9 |
| 20260906034428 | 75 | 158 | 1.0 | 6.0 | 0.00 | 0.36 | 0.36 | 92 | 1014.0 |
| 20260906034059 | 75 | 158 | 1.0 | 6.0 | 0.00 | 0.36 | 0.36 | 92 | 1014.0 |
| 20260906033428 | 75 | 171 | 1.0 | 7.0 | 0.00 | 0.36 | 0.36 | 91 | 1013.8 |
| 20260906033401 | 75 | 171 | 1.0 | 7.0 | 0.00 | 0.36 | 0.36 | 91 | 1013.8 |
| 20260906032659 | 75 | 194 | 2.0 | 6.0 | 0.00 | 0.36 | 0.36 | 90 | 1013.6 |
| 20260906032428 | 75 | 165 | 1.0 | 3.0 | 0.00 | 0.36 | 0.36 | 90 | 1013.6 |
| 20260906031959 | 75 | 165 | 1.0 | 6.0 | 0.00 | 0.36 | 0.36 | 89 | 1013.6 |
| 20260906031428 | 75 | 165 | 1.0 | 7.0 | 0.00 | 0.36 | 0.36 | 89 | 1013.6 |
| 20260906031300 | 75 | 165 | 1.0 | 7.0 | 0.00 | 0.36 | 0.36 | 89 | 1013.6 |
| 20260906030600 | 75 | 192 | 1.0 | 7.0 | 0.00 | 0.36 | 0.36 | 88 | 1013.6 |
| 20260906030427 | 76 | 137 | 2.0 | 3.0 | 0.00 | 0.36 | 0.36 | 88 | 1013.4 |
| 20260906025859 | 76 | 185 | 1.0 | 3.0 | 0.00 | 0.36 | 0.36 | 87 | 1013.7 |
| 20260906025427 | 76 | 148 | 1.0 | 3.0 | 0.00 | 0.36 | 0.36 | 86 | 1013.6 |
| 20260906025158 | 76 | 148 | 1.0 | 3.0 | 0.00 | 0.36 | 0.36 | 86 | 1013.6 |
| 20260906024501 | 77 | 110 | 1.0 | 3.0 | 0.00 | 0.36 | 0.36 | 86 | 1013.7 |
| 20260906024429 | 77 | 110 | 1.0 | 3.0 | 0.00 | 0.36 | 0.36 | 86 | 1013.7 |
| 20260906023801 | 77 | 115 | 1.0 | 4.0 | 0.00 | 0.36 | 0.36 | 85 | 1013.7 |
| 20260906023429 | 77 | 106 | 0.0 | 5.0 | 0.00 | 0.36 | 0.36 | 85 | 1013.6 |
| 20260906023100 | 77 | 106 | 0.0 | 5.0 | 0.00 | 0.36 | 0.36 | 85 | 1013.6 |
| 20260906022429 | 77 | 109 | 1.0 | 4.0 | 0.00 | 0.36 | 0.36 | 83 | 1013.4 |
| 20260906022400 | 77 | 109 | 1.0 | 4.0 | 0.00 | 0.36 | 0.36 | 83 | 1013.4 |
| 20260906021700 | 77 | 106 | 1.0 | 5.0 | 0.00 | 0.36 | 0.36 | 83 | 1013.3 |
| 20260906021429 | 78 | 90 | 2.0 | 5.0 | 0.00 | 0.36 | 0.36 | 82 | 1013.2 |
| 20260906021002 | 78 | 143 | 1.0 | 3.0 | 0.00 | 0.36 | 0.36 | 82 | 1013.3 |
| 20260906020429 | 78 | 109 | 1.0 | 3.0 | 0.00 | 0.36 | 0.36 | 81 | 1013.4 |
| 20260906020300 | 78 | 109 | 1.0 | 3.0 | 0.00 | 0.36 | 0.36 | 81 | 1013.4 |
| 20260906015601 | 78 | 109 | 0.0 | 2.0 | 0.00 | 0.36 | 0.36 | 81 | 1013.2 |
| 20260906015428 | 79 | 109 | 0.0 | 4.0 | 0.00 | 0.36 | 0.36 | 80 | 1012.9 |
| 20260906014901 | 79 | 109 | 1.0 | 4.0 | 0.00 | 0.36 | 0.36 | 80 | 1013.0 |
| 20260906014428 | 79 | 141 | 1.0 | 4.0 | 0.00 | 0.36 | 0.36 | 79 | 1013.1 |
| 20260906014200 | 79 | 141 | 1.0 | 4.0 | 0.00 | 0.36 | 0.36 | 79 | 1013.1 |
| 20260906013501 | 80 | 169 | 1.0 | 5.0 | 0.00 | 0.36 | 0.36 | 78 | 1013.0 |
| 20260906013428 | 80 | 169 | 1.0 | 5.0 | 0.00 | 0.36 | 0.36 | 78 | 1013.0 |
| 20260906012759 | 80 | 108 | 1.0 | 5.0 | 0.00 | 0.36 | 0.36 | 77 | 1012.9 |
| 20260906012428 | 80 | 176 | 1.0 | 5.0 | 0.00 | 0.36 | 0.36 | 76 | 1012.9 |
| 20260906012059 | 80 | 176 | 1.0 | 5.0 | 0.00 | 0.36 | 0.36 | 76 | 1012.9 |
| 20260906011428 | 81 | 100 | 1.0 | 3.0 | 0.00 | 0.36 | 0.36 | 75 | 1012.9 |
| 20260906011400 | 81 | 100 | 1.0 | 3.0 | 0.00 | 0.36 | 0.36 | 75 | 1012.9 |
| 20260906010659 | 81 | 139 | 1.0 | 3.0 | 0.00 | 0.36 | 0.36 | 74 | 1013.0 |
| 20260906010428 | 81 | 141 | 1.0 | 5.0 | 0.00 | 0.36 | 0.36 | 73 | 1013.0 |
| 20260906010000 | 82 | 118 | 1.0 | 5.0 | 0.00 | 0.36 | 0.36 | 73 | 1013.0 |
| 20260906005427 | 82 | 160 | 1.0 | 6.0 | 0.00 | 0.36 | 0.36 | 72 | 1012.9 |
| 20260906005300 | 82 | 160 | 1.0 | 6.0 | 0.00 | 0.36 | 0.36 | 72 | 1012.9 |
| 20260906004600 | 83 | 103 | 2.0 | 6.0 | 0.00 | 0.36 | 0.36 | 71 | 1012.9 |
| 20260906004427 | 83 | 161 | 1.0 | 4.0 | 0.00 | 0.36 | 0.36 | 70 | 1012.9 |
| 20260906003902 | 83 | 135 | 2.0 | 6.0 | 0.00 | 0.36 | 0.36 | 69 | 1013.0 |
| 20260906003428 | 84 | 80 | 1.0 | 6.0 | 0.00 | 0.36 | 0.36 | 69 | 1012.9 |
| 20260906003201 | 84 | 80 | 1.0 | 6.0 | 0.00 | 0.36 | 0.36 | 69 | 1012.9 |
| 20260906002500 | 85 | 150 | 1.0 | 6.0 | 0.00 | 0.36 | 0.36 | 66 | 1012.6 |
| 20260906002428 | 85 | 150 | 1.0 | 6.0 | 0.00 | 0.36 | 0.36 | 66 | 1012.6 |
| 20260906001759 | 85 | 137 | 2.0 | 5.0 | 0.00 | 0.36 | 0.36 | 65 | 1012.6 |
| 20260906001428 | 85 | 168 | 1.0 | 4.0 | 0.00 | 0.36 | 0.36 | 64 | 1012.5 |
| 20260906001059 | 85 | 168 | 1.0 | 4.0 | 0.00 | 0.36 | 0.36 | 64 | 1012.5 |
| 20260906000428 | 86 | 161 | 1.0 | 6.0 | 0.00 | 0.36 | 0.36 | 63 | 1012.3 |
| 20260906000400 | 86 | 161 | 1.0 | 6.0 | 0.00 | 0.36 | 0.36 | 63 | 1012.3 |
| 20260905235659 | 86 | 151 | 1.0 | 4.0 | 0.00 | 0.36 | 0.36 | 63 | 1012.0 |
| 20260905235428 | 86 | 145 | 2.0 | 7.0 | 0.00 | 0.36 | 0.36 | 63 | 1012.0 |
| 20260905234959 | 86 | 184 | 2.0 | 7.0 | 0.00 | 0.36 | 0.36 | 62 | 1012.1 |
| 20260905234427 | 87 | 180 | 1.0 | 8.0 | 0.00 | 0.36 | 0.36 | 62 | 1012.0 |
| 20260905234259 | 87 | 180 | 1.0 | 8.0 | 0.00 | 0.36 | 0.36 | 62 | 1012.0 |
| 20260905233600 | 87 | 183 | 3.0 | 8.0 | 0.00 | 0.36 | 0.36 | 61 | 1012.1 |
| 20260905233427 | 87 | 203 | 1.0 | 8.0 | 0.00 | 0.36 | 0.36 | 61 | 1012.1 |
| 20260905232858 | 87 | 173 | 2.0 | 10.0 | 0.00 | 0.36 | 0.36 | 62 | 1012.1 |
| 20260905232427 | 87 | 173 | 2.0 | 11.0 | 0.00 | 0.36 | 0.36 | 62 | 1012.1 |
| 20260905232200 | 87 | 173 | 2.0 | 11.0 | 0.00 | 0.36 | 0.36 | 62 | 1012.1 |
| 20260905231501 | 87 | 158 | 2.0 | 8.0 | 0.00 | 0.36 | 0.36 | 63 | 1012.1 |
| 20260905231429 | 87 | 158 | 2.0 | 8.0 | 0.00 | 0.36 | 0.36 | 63 | 1012.1 |
| 20260905230801 | 87 | 156 | 3.0 | 6.0 | 0.00 | 0.36 | 0.36 | 62 | 1012.1 |
| 20260905230429 | 87 | 191 | 2.0 | 5.0 | 0.00 | 0.36 | 0.36 | 62 | 1012.1 |
| 20260905230100 | 87 | 191 | 2.0 | 5.0 | 0.00 | 0.36 | 0.36 | 62 | 1012.1 |
| 20260905225429 | 88 | 167 | 4.0 | 8.0 | 0.00 | 0.36 | 0.36 | 61 | 1012.1 |
| 20260905225401 | 88 | 167 | 4.0 | 8.0 | 0.00 | 0.36 | 0.36 | 61 | 1012.1 |
| 20260905224700 | 88 | 139 | 2.0 | 6.0 | 0.00 | 0.36 | 0.36 | 61 | 1012.1 |
| 20260905224429 | 88 | 152 | 1.0 | 7.0 | 0.00 | 0.36 | 0.36 | 60 | 1012.1 |
| 20260905224004 | 88 | 167 | 3.0 | 8.0 | 0.00 | 0.36 | 0.36 | 59 | 1012.1 |
| 20260905223428 | 88 | 184 | 1.0 | 8.0 | 0.00 | 0.36 | 0.36 | 60 | 1012.2 |
| 20260905223300 | 88 | 184 | 1.0 | 8.0 | 0.00 | 0.36 | 0.36 | 60 | 1012.2 |
| 20260905222604 | 88 | 205 | 2.0 | 7.0 | 0.00 | 0.36 | 0.36 | 59 | 1012.2 |
| 20260905222428 | 88 | 164 | 1.0 | 6.0 | 0.00 | 0.36 | 0.36 | 60 | 1012.2 |
| 20260905221859 | 88 | 190 | 3.0 | 8.0 | 0.00 | 0.36 | 0.36 | 60 | 1012.1 |
| 20260905221428 | 88 | 162 | 2.0 | 8.0 | 0.00 | 0.36 | 0.36 | 60 | 1012.2 |
| 20260905221200 | 88 | 162 | 2.0 | 8.0 | 0.00 | 0.36 | 0.36 | 60 | 1012.2 |
| 20260905220501 | 88 | 160 | 2.0 | 5.0 | 0.00 | 0.36 | 0.36 | 60 | 1012.1 |
| 20260905220428 | 88 | 160 | 2.0 | 5.0 | 0.00 | 0.36 | 0.36 | 60 | 1012.1 |
| 20260905215759 | 88 | 140 | 2.0 | 6.0 | 0.00 | 0.36 | 0.36 | 61 | 1012.0 |
| 20260905215428 | 88 | 116 | 3.0 | 7.0 | 0.00 | 0.36 | 0.36 | 60 | 1012.0 |
| 20260905215100 | 88 | 116 | 3.0 | 7.0 | 0.00 | 0.36 | 0.36 | 60 | 1012.0 |
| 20260905214428 | 88 | 135 | 2.0 | 7.0 | 0.00 | 0.36 | 0.36 | 61 | 1012.0 |
| 20260905214401 | 88 | 135 | 2.0 | 7.0 | 0.00 | 0.36 | 0.36 | 61 | 1012.0 |
| 20260905213701 | 88 | 144 | 2.0 | 7.0 | 0.00 | 0.36 | 0.36 | 60 | 1012.0 |
| 20260905213428 | 88 | 168 | 3.0 | 7.0 | 0.00 | 0.36 | 0.36 | 59 | 1011.9 |
| 20260905213001 | 88 | 148 | 2.0 | 7.0 | 0.00 | 0.36 | 0.36 | 59 | 1012.0 |
| 20260905212428 | 88 | 175 | 2.0 | 7.0 | 0.00 | 0.36 | 0.36 | 59 | 1011.9 |
| 20260905212300 | 88 | 175 | 2.0 | 7.0 | 0.00 | 0.36 | 0.36 | 59 | 1011.9 |
| 20260905211600 | 88 | 118 | 3.0 | 7.0 | 0.00 | 0.36 | 0.36 | 59 | 1011.9 |
| 20260905211427 | 87 | 110 | 2.0 | 7.0 | 0.00 | 0.36 | 0.36 | 60 | 1011.9 |
| 20260905210901 | 87 | 101 | 3.0 | 8.0 | 0.00 | 0.36 | 0.36 | 59 | 1012.0 |
| 20260905210427 | 87 | 119 | 2.0 | 8.0 | 0.00 | 0.36 | 0.36 | 59 | 1012.0 |
| 20260905210201 | 87 | 119 | 2.0 | 8.0 | 0.00 | 0.36 | 0.36 | 59 | 1012.0 |
| 20260905205458 | 88 | 117 | 3.0 | 7.0 | 0.00 | 0.36 | 0.36 | 58 | 1011.9 |
| 20260905205427 | 88 | 117 | 3.0 | 7.0 | 0.00 | 0.36 | 0.36 | 58 | 1011.9 |
| 20260905204803 | 88 | 159 | 4.0 | 8.0 | 0.00 | 0.36 | 0.36 | 58 | 1011.9 |
| 20260905204429 | 87 | 151 | 3.0 | 9.0 | 0.00 | 0.36 | 0.36 | 57 | 1011.9 |
| 20260905204100 | 87 | 151 | 3.0 | 9.0 | 0.00 | 0.36 | 0.36 | 57 | 1011.9 |
| 20260905203429 | 88 | 117 | 3.0 | 8.0 | 0.00 | 0.36 | 0.36 | 58 | 1011.8 |
| 20260905203401 | 88 | 117 | 3.0 | 8.0 | 0.00 | 0.36 | 0.36 | 58 | 1011.8 |
| 20260905202706 | 88 | 110 | 3.0 | 8.0 | 0.00 | 0.36 | 0.36 | 58 | 1011.7 |
| 20260905202429 | 88 | 122 | 3.0 | 8.0 | 0.00 | 0.36 | 0.36 | 58 | 1011.8 |
| 20260905202003 | 88 | 171 | 3.0 | 11.0 | 0.00 | 0.36 | 0.36 | 59 | 1011.8 |
| 20260905201428 | 88 | 96 | 5.0 | 11.0 | 0.00 | 0.36 | 0.36 | 59 | 1011.8 |
| 20260905201300 | 88 | 96 | 5.0 | 11.0 | 0.00 | 0.36 | 0.36 | 59 | 1011.8 |
| 20260905200600 | 87 | 111 | 3.0 | 10.0 | 0.00 | 0.36 | 0.36 | 60 | 1011.8 |
| 20260905200428 | 87 | 101 | 4.0 | 10.0 | 0.00 | 0.36 | 0.36 | 60 | 1011.6 |
| 20260905195900 | 87 | 98 | 5.0 | 9.0 | 0.00 | 0.36 | 0.36 | 59 | 1011.7 |
| 20260905195428 | 87 | 132 | 2.0 | 8.0 | 0.00 | 0.36 | 0.36 | 61 | 1011.8 |
| 20260905195201 | 87 | 132 | 2.0 | 8.0 | 0.00 | 0.36 | 0.36 | 61 | 1011.8 |
| 20260905194500 | 86 | 98 | 2.0 | 12.0 | 0.00 | 0.36 | 0.36 | 63 | 1011.9 |
| 20260905194428 | 86 | 98 | 2.0 | 12.0 | 0.00 | 0.36 | 0.36 | 63 | 1011.9 |
| 20260905193801 | 86 | 85 | 7.0 | 10.0 | 0.00 | 0.36 | 0.36 | 62 | 1012.0 |
| 20260905193428 | 85 | 96 | 5.0 | 9.0 | 0.00 | 0.36 | 0.36 | 64 | 1012.0 |
| 20260905193105 | 85 | 96 | 5.0 | 9.0 | 0.00 | 0.36 | 0.36 | 64 | 1012.0 |
| 20260905192428 | 85 | 93 | 6.0 | 9.0 | 0.00 | 0.36 | 0.36 | 63 | 1012.0 |
| 20260905192400 | 85 | 93 | 6.0 | 9.0 | 0.00 | 0.36 | 0.36 | 63 | 1012.0 |
| 20260905191702 | 85 | 179 | 2.0 | 10.0 | 0.00 | 0.36 | 0.36 | 64 | 1011.9 |
| 20260905191428 | 85 | 104 | 4.0 | 12.0 | 0.00 | 0.36 | 0.36 | 64 | 1012.0 |
| 20260905190959 | 85 | 92 | 7.0 | 12.0 | 0.00 | 0.36 | 0.36 | 63 | 1012.0 |
| 20260905190428 | 85 | 96 | 5.0 | 7.0 | 0.00 | 0.36 | 0.36 | 65 | 1011.9 |
| 20260905190300 | 85 | 96 | 5.0 | 7.0 | 0.00 | 0.36 | 0.36 | 65 | 1011.9 |
| 20260905185606 | 85 | 102 | 2.0 | 8.0 | 0.00 | 0.36 | 0.36 | 64 | 1012.0 |
| 20260905185428 | 84 | 110 | 3.0 | 9.0 | 0.00 | 0.36 | 0.36 | 65 | 1012.0 |
| 20260905184900 | 84 | 105 | 4.0 | 9.0 | 0.00 | 0.36 | 0.36 | 65 | 1012.2 |
| 20260905184427 | 84 | 99 | 4.0 | 11.0 | 0.00 | 0.36 | 0.36 | 65 | 1012.2 |
| 20260905184200 | 84 | 99 | 4.0 | 11.0 | 0.00 | 0.36 | 0.36 | 65 | 1012.2 |
| 20260905183500 | 84 | 118 | 5.0 | 14.0 | 0.00 | 0.36 | 0.36 | 64 | 1012.4 |
| 20260905183427 | 84 | 118 | 5.0 | 14.0 | 0.00 | 0.36 | 0.36 | 64 | 1012.4 |
| 20260905182759 | 84 | 100 | 5.0 | 14.0 | 0.00 | 0.36 | 0.36 | 64 | 1012.4 |
| 20260905182427 | 84 | 102 | 4.0 | 11.0 | 0.00 | 0.36 | 0.36 | 65 | 1012.5 |
| 20260905182059 | 84 | 102 | 4.0 | 11.0 | 0.00 | 0.36 | 0.36 | 65 | 1012.5 |
| 20260905181427 | 84 | 95 | 7.0 | 13.0 | 0.00 | 0.36 | 0.36 | 66 | 1012.7 |
| 20260905181404 | 84 | 95 | 7.0 | 13.0 | 0.00 | 0.36 | 0.36 | 66 | 1012.7 |
| 20260905180701 | 84 | 164 | 3.0 | 9.0 | 0.00 | 0.36 | 0.36 | 67 | 1012.6 |
| 20260905180429 | 83 | 111 | 4.0 | 8.0 | 0.00 | 0.36 | 0.36 | 67 | 1012.7 |
| 20260905180002 | 83 | 144 | 3.0 | 10.0 | 0.00 | 0.36 | 0.36 | 67 | 1012.6 |
| 20260905175429 | 83 | 146 | 3.0 | 10.0 | 0.00 | 0.36 | 0.36 | 67 | 1012.7 |
| 20260905175306 | 83 | 146 | 3.0 | 10.0 | 0.00 | 0.36 | 0.36 | 67 | 1012.7 |
| 20260905174601 | 83 | 133 | 3.0 | 11.0 | 0.00 | 0.36 | 0.36 | 67 | 1012.7 |
| 20260905174429 | 82 | 105 | 3.0 | 11.0 | 0.00 | 0.36 | 0.36 | 68 | 1012.6 |
| 20260905173904 | 82 | 134 | 2.0 | 10.0 | 0.00 | 0.36 | 0.36 | 70 | 1012.7 |
| 20260905173428 | 82 | 94 | 4.0 | 10.0 | 0.00 | 0.36 | 0.36 | 71 | 1012.6 |
| 20260905173200 | 82 | 94 | 4.0 | 10.0 | 0.00 | 0.36 | 0.36 | 71 | 1012.6 |
| 20260905172500 | 81 | 145 | 4.0 | 12.0 | 0.00 | 0.36 | 0.36 | 71 | 1012.5 |
| 20260905172428 | 81 | 145 | 4.0 | 12.0 | 0.00 | 0.36 | 0.36 | 71 | 1012.5 |
| 20260905171759 | 81 | 137 | 5.0 | 12.0 | 0.00 | 0.36 | 0.36 | 70 | 1012.5 |
| 20260905171429 | 81 | 122 | 3.0 | 10.0 | 0.00 | 0.36 | 0.36 | 71 | 1012.5 |
| 20260905171103 | 81 | 122 | 3.0 | 10.0 | 0.00 | 0.36 | 0.36 | 71 | 1012.5 |
| 20260905170429 | 81 | 177 | 2.0 | 10.0 | 0.00 | 0.36 | 0.36 | 74 | 1012.4 |
| 20260905170400 | 81 | 177 | 2.0 | 10.0 | 0.00 | 0.36 | 0.36 | 74 | 1012.4 |
| 20260905165702 | 80 | 120 | 3.0 | 9.0 | 0.00 | 0.36 | 0.36 | 73 | 1012.4 |
| 20260905165428 | 80 | 137 | 3.0 | 9.0 | 0.00 | 0.36 | 0.36 | 73 | 1012.6 |
| 20260905165000 | 80 | 139 | 2.0 | 9.0 | 0.00 | 0.36 | 0.36 | 74 | 1012.6 |
| 20260905164429 | 79 | 128 | 3.0 | 11.0 | 0.00 | 0.36 | 0.36 | 75 | 1012.6 |
| 20260905164300 | 79 | 128 | 3.0 | 11.0 | 0.00 | 0.36 | 0.36 | 75 | 1012.6 |
| 20260905163600 | 79 | 119 | 3.0 | 11.0 | 0.00 | 0.36 | 0.36 | 75 | 1012.7 |
| 20260905163428 | 78 | 110 | 5.0 | 11.0 | 0.00 | 0.36 | 0.36 | 76 | 1012.8 |
| 20260905162902 | 78 | 114 | 4.0 | 11.0 | 0.00 | 0.36 | 0.36 | 77 | 1012.9 |
| 20260905162428 | 78 | 138 | 3.0 | 10.0 | 0.00 | 0.36 | 0.36 | 78 | 1012.9 |
| 20260905162200 | 78 | 138 | 3.0 | 10.0 | 0.00 | 0.36 | 0.36 | 78 | 1012.9 |
| 20260905161500 | 77 | 98 | 4.0 | 7.0 | 0.00 | 0.36 | 0.36 | 78 | 1012.8 |
| 20260905161428 | 77 | 98 | 4.0 | 7.0 | 0.00 | 0.36 | 0.36 | 78 | 1012.8 |
| 20260905160759 | 77 | 120 | 3.0 | 8.0 | 0.00 | 0.36 | 0.36 | 79 | 1012.7 |
| 20260905160427 | 77 | 117 | 3.0 | 8.0 | 0.00 | 0.36 | 0.36 | 80 | 1012.7 |
| 20260905160059 | 77 | 117 | 3.0 | 8.0 | 0.00 | 0.36 | 0.36 | 80 | 1012.7 |
| 20260905155427 | 76 | 179 | 3.0 | 8.0 | 0.00 | 0.36 | 0.36 | 82 | 1012.5 |
| 20260905155359 | 76 | 179 | 3.0 | 8.0 | 0.00 | 0.36 | 0.36 | 82 | 1012.5 |
| 20260905154659 | 76 | 129 | 3.0 | 7.0 | 0.00 | 0.36 | 0.36 | 82 | 1012.6 |
| 20260905154427 | 75 | 114 | 2.0 | 7.0 | 0.00 | 0.36 | 0.36 | 83 | 1012.8 |
| 20260905154000 | 74 | 101 | 3.0 | 8.0 | 0.00 | 0.36 | 0.36 | 84 | 1012.8 |
| 20260905153427 | 74 | 87 | 5.0 | 8.0 | 0.00 | 0.36 | 0.36 | 83 | 1012.6 |
| 20260905153258 | 74 | 87 | 5.0 | 8.0 | 0.00 | 0.36 | 0.36 | 83 | 1012.6 |
| 20260905152601 | 74 | 84 | 3.0 | 8.0 | 0.00 | 0.36 | 0.36 | 84 | 1012.8 |
| 20260905152429 | 74 | 91 | 4.0 | 8.0 | 0.00 | 0.36 | 0.36 | 84 | 1012.8 |
| 20260905151902 | 73 | 89 | 5.0 | 9.0 | 0.00 | 0.36 | 0.36 | 83 | 1012.8 |
| 20260905151429 | 73 | 93 | 5.0 | 9.0 | 0.00 | 0.36 | 0.36 | 83 | 1012.3 |
| 20260905151201 | 73 | 93 | 5.0 | 9.0 | 0.00 | 0.36 | 0.36 | 83 | 1012.3 |